This is the latest recevied weather packets stored in our database for station/object N6DZK. If no packets are shown the sender has not sent any weather packets the latest 10 day(s).
| Time | Temp. | Humidity | Pressure | Rain* | Wind** | Luminosity | Snow |
|---|---|---|---|---|---|---|---|
| 1778091475 | 23.33° C | 53% | 1019.8 hPa | 0 mm | - | 915 W/m² | - |
| 1778091173 | 22.78° C | 52% | 1019.9 hPa | 0 mm | - | 909 W/m² | - |
| 1778090870 | 22.22° C | 54% | 1019.8 hPa | 0 mm | - | 915 W/m² | - |
| 1778090565 | 22.22° C | 55% | 1019.9 hPa | 0 mm | - | 893 W/m² | - |
| 1778090262 | 22.22° C | 54% | 1020 hPa | 0 mm | - | 889 W/m² | - |
| 1778089959 | 22.22° C | 56% | 1020 hPa | 0 mm | - | 875 W/m² | - |
| 1778089657 | 21.67° C | 55% | 1020 hPa | 0 mm | - | 869 W/m² | - |
| 1778089353 | 21.67° C | 54% | 1020 hPa | 0 mm | - | 850 W/m² | - |
| 1778089051 | 22.22° C | 54% | 1020 hPa | 0 mm | - | 835 W/m² | - |
| 1778088748 | 21.67° C | 54% | 1020 hPa | 0 mm | - | 824 W/m² | - |
| 1778088445 | 21.67° C | 56% | 1019.9 hPa | 0 mm | - | 807 W/m² | - |
| 1778088141 | 21.11° C | 56% | 1020.2 hPa | 0 mm | - | 792 W/m² | - |
| 1778087839 | 21.67° C | 55% | 1019.9 hPa | 0 mm | - | 780 W/m² | - |
| 1778087536 | 21.11° C | 55% | 1020.1 hPa | 0 mm | - | 763 W/m² | - |
| 1778087233 | 21.11° C | 60% | 1020.2 hPa | 0 mm | - | 742 W/m² | - |
| 1778086930 | 20.56° C | 59% | 1020.2 hPa | 0 mm | - | 723 W/m² | - |
| 1778086628 | 20.56° C | 58% | 1020.2 hPa | 0 mm | - | 698 W/m² | - |
| 1778086325 | 20.56° C | 57% | 1020.1 hPa | 0 mm | - | 682 W/m² | - |
| 1778086022 | 20.56° C | 58% | 1020.4 hPa | 0 mm | - | 662 W/m² | - |
| 1778085719 | 21.11° C | 57% | 1020.1 hPa | 0 mm | - | 648 W/m² | - |
| 1778085415 | 20.56° C | 59% | 1020.3 hPa | 0 mm | - | 635 W/m² | - |
| 1778085111 | 20° C | 61% | 1020.4 hPa | 0 mm | - | 623 W/m² | - |
| 1778084807 | 20° C | 60% | 1020.4 hPa | 0 mm | - | 610 W/m² | - |
| 1778084505 | 20° C | 60% | 1020.3 hPa | 0 mm | - | 597 W/m² | - |
| 1778084202 | 20.56° C | 59% | 1020.5 hPa | 0 mm | - | 579 W/m² | - |
* Rain latest hour (hover to see other rain measurements)
** Current wind speed in m/s (hover to see current wind gust speed)